GW0890 Weather Reports


Display with metric or nautical units.
time (UTC)temp
F
wind
direction
speed
MPH
gust
MPH
rain 1hr
in
rain 24hr
in
rain mn
in
humidity
%
barometer
mb
20260510184549 74 159 2.0 9.0 0.00 0.00 0.00 59 1013.3
20260510183055 75 180 5.0 12.0 0.00 0.00 0.00 59 1013.2
20260510181547 76 88 3.0 9.0 0.00 0.00 0.00 59 1013.2
20260510180045 74 50 6.0 10.0 0.00 0.00 0.00 61 1013.1
20260510174545 74 109 2.0 6.0 0.00 0.00 0.00 61 1013.2
20260510173053 75 112 4.0 9.0 0.00 0.00 0.00 61 1013.2
20260510173048 75 113 4.0 9.0 0.00 0.00 0.00 61 1013.2
20260510171546 74 148 3.0 8.0 0.00 0.00 0.00 62 1013.2
20260510170037 74 30 6.0 11.0 0.00 0.00 0.00 62 1013.3
20260510164542 73 129 1.0 4.0 0.00 0.00 0.00 64 1013.2
20260510163033 73 120 2.0 6.0 0.00 0.00 0.00 61 1013.3
20260510161529 74 74 4.0 7.0 0.00 0.00 0.00 61 1013.3
20260510160030 72 116 4.0 9.0 0.00 0.00 0.00 62 1013.2
20260510154520 71 98 2.0 10.0 0.00 0.00 0.00 63 1013.3
20260510153030 71 61 6.0 13.0 0.00 0.00 0.00 62 1013.3
20260510151517 71 86 3.0 10.0 0.00 0.00 0.00 63 1013.1
20260510150016 70 15 6.0 11.0 0.00 0.00 0.00 65 1012.8
20260510144525 70 291 1.0 12.0 0.00 0.00 0.00 69 1013.1
20260510143010 70 56 7.0 10.0 0.00 0.00 0.00 66 1013.3
20260510141505 68 24 5.0 10.0 0.00 0.00 0.00 70 1013.2
20260510140101 66 34 5.0 10.0 0.00 0.00 0.00 71 1013.1
20260510134604 65 55 6.0 11.0 0.00 0.00 0.00 74 1013.3
20260510133102 63 94 0.0 7.0 0.00 0.00 0.00 81 1013.3
20260510131559 62 83 0.0 0.0 0.00 0.00 0.00 87 1013.2
20260510130042 60 86 0.0 2.0 0.00 0.00 0.00 91 1013.1
20260510124540 59 86 0.0 1.0 0.00 0.00 0.00 96 1013.2
20260510123037 56 86 0.0 0.0 0.00 0.00 0.00 98 1013.0
20260510121531 55 85 0.0 1.0 0.00 0.00 0.00 98 1012.9
20260510120030 52 85 0.0 0.0 0.00 0.00 0.00 98 1012.9
20260510114557 50 85 0.0 0.0 0.00 0.00 0.00 97 1012.7
20260510113054 48 85 0.0 0.0 0.00 0.00 0.00 97 1012.6
20260510111551 48 84 0.0 1.0 0.00 0.00 0.00 97 1012.4
20260510110049 47 85 0.0 0.0 0.00 0.00 0.00 96 1012.0
20260510104547 47 85 0.0 0.0 0.00 0.00 0.00 96 1011.8
20260510103045 47 85 0.0 1.0 0.00 0.00 0.00 96 1011.6
20260510101543 47 84 0.0 2.0 0.00 0.00 0.00 96 1011.4
20260510100042 47 82 0.0 2.0 0.00 0.00 0.00 96 1011.5
20260510094538 47 81 0.0 2.0 0.00 0.00 0.00 96 1011.2
20260510093037 48 81 0.0 2.0 0.00 0.00 0.00 96 1011.1
20260510091534 48 80 0.0 1.0 0.00 0.00 0.00 96 1011.0
20260510090031 48 80 0.0 0.0 0.00 0.00 0.00 96 1010.8
20260510084530 48 80 0.0 0.0 0.00 0.00 0.00 96 1010.8
20260510083029 48 80 0.0 0.0 0.00 0.00 0.00 96 1010.5
20260510081532 49 80 0.0 0.0 0.00 0.00 0.00 96 1010.3
20260510080025 49 78 0.0 0.0 0.00 0.00 0.00 96 1010.3
20260510074525 50 78 0.0 4.0 0.00 0.00 0.00 96 1010.2
20260510073032 49 76 0.0 1.0 0.00 0.00 0.00 96 1010.2
20260510071520 49 76 0.0 0.0 0.00 0.00 0.00 95 1010.1
20260510070019 49 76 0.0 0.0 0.00 0.00 0.00 95 1010.1
20260510064519 50 76 0.0 2.0 0.00 0.00 0.00 95 1010.0
20260510063015 50 76 0.0 1.0 0.00 0.00 0.00 95 1010.3
20260510061546 51 75 0.0 4.0 0.00 0.00 0.00 95 1010.3
20260510060044 51 71 0.0 0.0 0.00 0.00 0.00 95 1010.3
20260510054540 51 70 0.0 0.0 0.00 0.00 0.00 94 1010.4
20260510053040 51 70 0.0 0.0 0.00 0.00 0.00 94 1010.3
20260510051543 51 71 0.0 0.0 0.00 0.00 0.00 94 1010.4
20260510050036 52 70 0.0 0.0 0.00 0.00 0.00 94 1010.5
20260510044544 52 70 0.0 0.0 0.00 0.00 0.00 94 1010.5
20260510043003 53 70 0.0 0.0 0.00 0.00 0.00 93 1010.7
20260510041601 53 65 0.0 0.0 0.00 0.00 0.00 93 1010.7
20260510040109 53 63 0.0 0.0 0.00 0.00 0.00 92 1010.7
20260510034556 54 64 0.0 0.0 0.00 0.00 0.00 92 1010.7
20260510033055 54 63 0.0 0.0 0.00 0.00 0.00 91 1010.5
20260510031558 54 61 0.0 0.0 0.00 0.00 0.00 90 1010.5
20260510030050 55 53 0.0 0.0 0.00 0.00 0.00 90 1010.3
20260510024549 56 51 0.0 0.0 0.00 0.00 0.00 88 1010.2
20260510023047 57 47 0.0 0.0 0.00 0.00 0.00 86 1010.1
20260510021545 58 47 0.0 0.0 0.00 0.00 0.00 84 1009.7
20260510020041 60 44 0.0 0.0 0.00 0.00 0.00 80 1009.5
20260510014540 62 44 0.0 0.0 0.00 0.00 0.00 76 1009.2
20260510013039 64 44 0.0 0.0 0.00 0.00 0.00 73 1009.0
20260510011539 65 44 0.0 0.0 0.00 0.00 0.00 71 1008.8
20260510010036 66 44 0.0 2.0 0.00 0.00 0.00 70 1008.7
20260510004536 66 44 1.0 7.0 0.00 0.00 0.00 69 1008.4
20260510003035 67 34 4.0 8.0 0.00 0.00 0.00 68 1008.3
20260510001534 68 21 3.0 9.0 0.00 0.00 0.00 67 1008.0
20260510000030 68 71 5.0 8.0 0.00 0.00 0.00 65 1008.1
20260509234535 69 38 3.0 7.0 0.00 0.00 0.00 64 1008.0
20260509233030 70 40 5.0 13.0 0.00 0.00 0.00 63 1007.9
20260509231530 70 23 6.0 10.0 0.00 0.00 0.00 61 1007.9
20260509230100 71 38 6.0 11.0 0.00 0.00 0.00 61 1007.9
20260509224604 71 355 6.0 13.0 0.00 0.00 0.00 60 1007.8
20260509223106 71 65 5.0 10.0 0.00 0.00 0.00 60 1007.7
20260509221605 71 10 8.0 13.0 0.00 0.00 0.00 61 1007.7
20260509220055 71 17 8.0 12.0 0.00 0.00 0.00 59 1007.8
20260509214558 71 26 3.0 7.0 0.00 0.00 0.00 62 1007.8
20260509213051 72 322 7.0 14.0 0.00 0.00 0.00 60 1007.9
20260509211552 71 14 7.0 13.0 0.00 0.00 0.00 61 1008.0
20260509210053 70 32 4.0 13.0 0.00 0.00 0.00 63 1007.9
20260509204551 71 13 8.0 14.0 0.00 0.00 0.00 62 1008.1
20260509203046 71 43 7.0 15.0 0.00 0.00 0.00 61 1007.9
20260509201553 70 110 10.0 15.0 0.00 0.00 0.00 61 1008.0
20260509200054 71 76 2.0 8.0 0.00 0.00 0.00 60 1008.0
20260509194543 71 14 6.0 11.0 0.00 0.00 0.00 62 1008.0
20260509193039 70 51 6.0 16.0 0.00 0.00 0.00 64 1008.1
20260509191539 71 71 6.0 14.0 0.00 0.00 0.00 62 1008.2
20260509190038 70 360 9.0 12.0 0.00 0.00 0.00 62 1008.0